TimeMDT,TemperatureF,Dew PointF,Humidity,Sea Level PressureIn,VisibilityMPH,Wind Direction,Wind SpeedMPH,Gust SpeedMPH,PrecipitationIn,Events,Conditions,WindDirDegrees,DateUTC
12:00 AM,47,41,72,29.75,,ENE,2.3,,,,,70,2013-09-16 06:00:00
12:00 AM,47.5,40.8,78,29.75,-9999.0,ENE,2.3,-,N/A,,Unknown,70,2013-09-16 06:00:00
1:00 AM,47.3,40.3,77,29.73,-9999.0,ENE,3.5,-,N/A,,Unknown,60,2013-09-16 07:00:00
2:00 AM,47.5,40.8,78,29.73,-9999.0,ENE,2.3,-,N/A,,Unknown,70,2013-09-16 08:00:00
3:00 AM,48.0,40.8,76,29.71,-9999.0,East,2.3,-,N/A,,Unknown,90,2013-09-16 09:00:00
4:00 AM,46.6,40.5,79,29.69,-9999.0,East,2.3,-,N/A,,Unknown,80,2013-09-16 10:00:00
5:00 AM,45.1,40.3,83,29.70,-9999.0,East,2.3,-,N/A,,Unknown,80,2013-09-16 11:00:00
6:00 AM,49,48,96,29.79,,West,16.1,,,,,260,2013-09-16 12:00:00
6:00 AM,49.5,48.2,95,29.79,-9999.0,West,16.1,26.5,0.04,,Unknown,260,2013-09-16 12:00:00
7:00 AM,49.3,48.6,97,29.75,-9999.0,ENE,5.8,-,0.03,,Unknown,60,2013-09-16 13:00:00
8:00 AM,48.2,47.5,97,29.76,-9999.0,SW,2.3,-,N/A,,Unknown,230,2013-09-16 14:00:00
9:00 AM,49.5,48.7,97,29.76,-9999.0,West,12.7,-,N/A,,Unknown,260,2013-09-16 15:00:00
10:00 AM,52.7,50.4,92,29.74,-9999.0,West,18.4,-,N/A,,Unknown,260,2013-09-16 16:00:00
11:00 AM,54.5,50.7,87,29.75,-9999.0,West,15.0,-,N/A,,Unknown,260,2013-09-16 17:00:00
12:00 PM,53.8,49.1,84,29.74,-9999.0,WSW,13.8,-,N/A,,Unknown,250,2013-09-16 18:00:00
1:00 PM,56.7,47.1,70,29.71,-9999.0,WSW,19.6,27.6,N/A,,Unknown,250,2013-09-16 19:00:00
2:00 PM,56.1,47.3,72,29.73,-9999.0,SW,12.7,-,N/A,,Unknown,230,2013-09-16 20:00:00
3:00 PM,57.6,48.4,71,29.70,-9999.0,West,11.5,-,N/A,,Unknown,270,2013-09-16 21:00:00
4:00 PM,56.7,42.3,59,29.73,-9999.0,West,17.3,27.6,N/A,,Unknown,270,2013-09-16 22:00:00
5:00 PM,55.0,44.4,67,29.72,-9999.0,West,11.5,-,N/A,,Unknown,260,2013-09-16 23:00:00
6:00 PM,57,43,49,29.71,,West,10.4,,,,,260,2013-09-17 00:00:00
6:00 PM,57.0,43.2,60,29.71,-9999.0,West,10.4,-,N/A,,Unknown,260,2013-09-17 00:00:00
7:00 PM,52.9,44.4,73,29.72,-9999.0,SW,12.7,-,N/A,,Unknown,230,2013-09-17 01:00:00
8:00 PM,50.7,45.5,82,29.74,-9999.0,WSW,12.7,-,N/A,,Unknown,250,2013-09-17 02:00:00
9:00 PM,48.4,46.9,95,29.76,-9999.0,WSW,11.5,-,N/A,,Unknown,240,2013-09-17 03:00:00
10:00 PM,48.4,46.0,92,29.75,-9999.0,West,12.7,-,N/A,,Unknown,260,2013-09-17 04:00:00
11:00 PM,48.6,45.7,90,29.75,-9999.0,West,11.5,-,N/A,,Unknown,260,2013-09-17 05:00:00